TimeMST,TemperatureF,Dew PointF,Humidity,Sea Level PressureIn,VisibilityMPH,Wind Direction,Wind SpeedMPH,Gust SpeedMPH,PrecipitationIn,Events,Conditions,WindDirDegrees,DateUTC
12:53 AM,-2.9,-7.1,82,30.58,10.0,Calm,Calm,-,N/A,,Clear,0,2013-01-19 07:53:00
1:53 AM,-0.9,-5.1,83,30.57,10.0,NE,3.5,-,N/A,,Clear,50,2013-01-19 08:53:00
2:53 AM,1.0,-2.9,83,30.57,10.0,Calm,Calm,-,N/A,,Clear,0,2013-01-19 09:53:00
3:53 AM,-4.0,-8.0,83,30.62,10.0,Calm,Calm,-,N/A,,Clear,0,2013-01-19 10:53:00
4:53 AM,-0.0,-6.0,76,30.63,10.0,SE,3.5,-,N/A,,Clear,140,2013-01-19 11:53:00
5:53 AM,-0.9,-5.1,83,30.70,10.0,Calm,Calm,-,N/A,,Clear,0,2013-01-19 12:53:00
6:53 AM,-0.9,-5.1,83,30.71,10.0,Calm,Calm,-,N/A,,Clear,0,2013-01-19 13:53:00
7:53 AM,-2.0,-7.1,79,30.76,10.0,Calm,Calm,-,N/A,,Clear,0,2013-01-19 14:53:00
8:53 AM,1.9,-0.0,91,30.75,10.0,Calm,Calm,-,N/A,,Clear,0,2013-01-19 15:53:00
9:53 AM,9.0,3.9,80,30.74,10.0,Calm,Calm,-,N/A,,Clear,0,2013-01-19 16:53:00
10:53 AM,15.1,5.0,64,30.71,10.0,Calm,Calm,-,N/A,,Clear,0,2013-01-19 17:53:00
11:53 AM,19.9,8.1,60,30.66,10.0,Calm,Calm,-,N/A,,Clear,0,2013-01-19 18:53:00
12:53 PM,25.0,10.0,53,30.61,10.0,Calm,Calm,-,N/A,,Clear,0,2013-01-19 19:53:00
1:53 PM,27.0,8.1,45,30.58,10.0,Calm,Calm,-,N/A,,Clear,0,2013-01-19 20:53:00
2:53 PM,28.9,10.0,45,30.55,10.0,Calm,Calm,-,N/A,,Clear,0,2013-01-19 21:53:00
3:53 PM,26.1,12.0,55,30.58,10.0,Calm,Calm,-,N/A,,Clear,0,2013-01-19 22:53:00
4:53 PM,19.9,9.0,62,30.59,10.0,Calm,Calm,-,N/A,,Clear,0,2013-01-19 23:53:00
5:53 PM,10.0,3.0,73,30.64,10.0,Calm,Calm,-,N/A,,Clear,0,2013-01-20 00:53:00
6:53 PM,7.0,1.9,80,30.66,10.0,Calm,Calm,-,N/A,,Clear,0,2013-01-20 01:53:00
7:53 PM,3.0,-0.9,84,30.69,10.0,Calm,Calm,-,N/A,,Clear,0,2013-01-20 02:53:00
8:53 PM,1.9,-2.9,80,30.69,10.0,Calm,Calm,-,N/A,,Clear,0,2013-01-20 03:53:00
9:53 PM,1.0,-2.0,87,30.66,10.0,ENE,3.5,-,N/A,,Clear,60,2013-01-20 04:53:00
10:53 PM,1.9,-2.0,83,30.62,10.0,Calm,Calm,-,N/A,,Clear,0,2013-01-20 05:53:00
11:53 PM,3.0,-2.0,80,30.58,10.0,Calm,Calm,-,N/A,,Clear,0,2013-01-20 06:53:00